アマラウ彗星

C/2020 O2 ( Amaral )

English version
Home page
Updated on December 11, 2020

---------------------------------------------------------------------

・ プロフィール

発見日 2020年7月23日
発見光度 18.1等
発見者 Leonardo S. Amaral (Rio de Janeiro, Brazil)

・ 軌道要素

Epoch 2021 Aug. 14.0 TT = JDT 2459440.5
T 2021 Aug. 28.37834 TT                                 Rudenko
q   4.8637352            (2000.0)            P               Q
z  -0.0003295      Peri.   10.26020     -0.17119643     +0.34074754
 +/-0.0001413      Node   256.75283     -0.95780208     -0.27744113
e   1.0016025      Incl.   71.75157     -0.23088299     +0.89828589
From 74 observations 2020 July 23-Sept. 14, mean residual 0".5.

・ 星図

・ 光度変化

        m1 = 6.5 + 5 logΔ + 10.0 log r

---------------------------------------------------------------------

軌道要素はM.P.E.C. 2020-W26に掲載されたものです。
星図はステラナビゲータ Ver.10 (アストロアーツ) で作成したものです。
光度グラフはComet for Windowsで作成したものです。

---------------------------------------------------------------------

Copyright(C) Seiichi Yoshida (comet@aerith.net). All rights reserved.